Change the Weather History Date:

Friday, November 9, 2012

  Actual Average Record
Temperature  
Mean Temperature 58 °F -  
Max Temperature 66 °F 61 °F 78 °F (2000)
Min Temperature 50 °F 47 °F 46 °F (2006)
Degree Days  
Heating Degree Days 7    
Growing Degree Days 8 (Base 50)    
Moisture  
Dew Point 43 °F    
Average Humidity 57    
Maximum Humidity 77    
Minimum Humidity 40    
Precipitation  
Precipitation 0.00 in - - ()
Sea Level Pressure  
Sea Level Pressure 30.00 in    
Wind  
Wind Speed 5 mph ()    
Max Wind Speed 12 mph    
Max Gust Speed -    
Visibility 6.2 miles    
Events      
Averages and records for this station are not official NWS values.
T = Trace of Precipitation, MM = Missing Value Source: Averaged Metar Reports

Daily Weather History Graph

Daily Weather History Graph

Search for Another Location

Airport or City:

Trip Planner

Search our weather history database for the weather conditions in past years. The results will help you decide how hot, cold, wet, or windy it might be!

Date:

Astronomy

Nov. 09, 2012 Rise Set
Actual Time 7:00 AM EET 5:18 PM EET
Civil Twilight 6:32 AM EET 5:46 PM EET
Nautical Twilight 6:01 AM EET 6:17 PM EET
Astronomical Twilight 5:30 AM EET 6:48 PM EET
Moon 1:43 AM EET (11/9) 2:17 PM EET (11/9)
Length of Visible Light 11h 13m
Length of Day
10h 18m
Waning Crescent, 26% of the Moon is Illuminated
Nov 9
Waning Crescent
Nov 14
New
Nov 20
First Quarter
Nov 28
Full
Dec 6
Last Quarter

Hourly Weather History & Observations

Time (EET) Temp. Dew Point Humidity Pressure Visibility Wind Dir Wind Speed Gust Speed Precip Events Conditions
12:50 AM 53.6 °F 39.2 °F 58% 30.09 in 6.2 mi NW 5.8 mph - N/A   Partly Cloudy
1:50 AM 53.6 °F 37.4 °F 54% 30.09 in 6.2 mi NNE 4.6 mph - N/A   Partly Cloudy
2:50 AM 53.6 °F 37.4 °F 54% 30.09 in 6.2 mi Calm Calm - N/A   Partly Cloudy
3:50 AM 53.6 °F 39.2 °F 58% 30.06 in 6.2 mi NNW 4.6 mph - N/A   Partly Cloudy
4:50 AM 53.6 °F 39.2 °F 58% 30.04 in 6.2 mi NNW 6.9 mph - N/A   Partly Cloudy
5:20 AM 53.6 °F 39.2 °F 58% 30.04 in 6.2 mi North 6.9 mph - N/A   Partly Cloudy
5:50 AM 51.8 °F 39.2 °F 62% 30.06 in 6.2 mi North 6.9 mph - N/A   Partly Cloudy
6:20 AM 51.8 °F 39.2 °F 62% 30.06 in 6.2 mi North 5.8 mph - N/A   Partly Cloudy
6:50 AM 50.0 °F 37.4 °F 62% 30.06 in 6.2 mi NNW 5.8 mph - N/A   Partly Cloudy
7:20 AM 53.6 °F 39.2 °F 58% 30.06 in 6.2 mi NNW 5.8 mph - N/A   Partly Cloudy
7:50 AM 55.4 °F 42.8 °F 63% 30.04 in 6.2 mi NNW 5.8 mph - N/A   Partly Cloudy
8:20 AM 57.2 °F 42.8 °F 59% 30.04 in 6.2 mi NW 5.8 mph - N/A   Partly Cloudy
8:50 AM 59.0 °F 44.6 °F 59% 30.04 in 6.2 mi NNW 11.5 mph - N/A   Partly Cloudy
9:20 AM 60.8 °F 42.8 °F 52% 30.04 in 6.2 mi NW 11.5 mph - N/A   Partly Cloudy
9:50 AM 60.8 °F 44.6 °F 55% 30.04 in 6.2 mi NNW 9.2 mph - N/A   Partly Cloudy
10:20 AM 60.8 °F 44.6 °F 55% 30.04 in 6.2 mi NNW 9.2 mph - N/A   Partly Cloudy
10:50 AM 62.6 °F 44.6 °F 52% 30.01 in 6.2 mi NW 9.2 mph - N/A   Partly Cloudy
11:20 AM 62.6 °F 42.8 °F 48% 30.01 in 6.2 mi NW 9.2 mph - N/A   Partly Cloudy
11:50 AM 64.4 °F 42.8 °F 45% 30.01 in - NW 11.5 mph - N/A   Clear
12:20 PM 64.4 °F 42.8 °F 45% 30.01 in - NW 11.5 mph - N/A   Clear
12:50 PM 64.4 °F 42.8 °F 45% 29.98 in - NNW 9.2 mph - N/A   Clear
1:20 PM 64.4 °F 42.8 °F 45% 29.98 in - NNW 6.9 mph - N/A   Clear
1:50 PM 66.2 °F 42.8 °F 43% 29.95 in - North 4.6 mph - N/A   Clear
2:20 PM 66.2 °F 42.8 °F 43% 29.95 in - North 4.6 mph - N/A   Clear
2:50 PM 66.2 °F 41.0 °F 40% 29.95 in - NNW 4.6 mph - N/A   Clear
3:20 PM 66.2 °F 41.0 °F 40% 29.95 in - SSW 4.6 mph - N/A   Clear
3:50 PM 66.2 °F 44.6 °F 46% 29.92 in - SW 6.9 mph - N/A   Clear
4:20 PM 64.4 °F 44.6 °F 49% 29.92 in - SSW 6.9 mph - N/A   Clear
4:50 PM 64.4 °F 46.4 °F 52% 29.92 in - SW 4.6 mph - N/A   Clear
5:20 PM 62.6 °F 44.6 °F 52% 29.92 in - Calm Calm - N/A   Clear
5:50 PM 59.0 °F 44.6 °F 59% 29.92 in - Calm Calm - N/A   Clear
6:20 PM 59.0 °F 44.6 °F 59% 29.92 in - Calm Calm - N/A   Clear
6:50 PM 57.2 °F 44.6 °F 63% 29.95 in - Calm Calm - N/A   Clear
7:20 PM 55.4 °F 44.6 °F 67% 29.95 in - Calm Calm - N/A   Clear
7:50 PM 53.6 °F 44.6 °F 72% 29.95 in - NNW 4.6 mph - N/A   Clear
8:20 PM 51.8 °F 44.6 °F 76% 29.95 in - NNW 4.6 mph - N/A   Clear
8:50 PM 51.8 °F 44.6 °F 76% 29.98 in - Calm Calm - N/A   Clear
9:20 PM 53.6 °F 46.4 °F 77% 29.98 in - Calm Calm - N/A   Clear
9:50 PM 55.4 °F 44.6 °F 67% 29.98 in - NW 6.9 mph - N/A   Clear
10:20 PM 55.4 °F 44.6 °F 67% 29.98 in - NNW 4.6 mph - N/A   Clear
10:50 PM 53.6 °F 46.4 °F 77% 29.98 in - NNW 4.6 mph - N/A   Clear
11:50 PM 53.6 °F 46.4 °F 77% 30.01 in - NNW 5.8 mph - N/A   Clear